Latest Weather Observations for Cooma Airport

IDN60801

Issued at 11:02 pm EST Friday 17 August 2018 (issued every 10 minutes, with the page automatically refreshed every 10 minutes)

About weather observations | Map of weather stations | Latest weather observations for NSW | Other Formats
Station Details ID: 070217 Name: COOMA AIRPORT AWS Lat: -36.29 Lon: 148.97 Height: 930.0 m
Data from the previous 72 hours. | See also: Recent months at Cooma Airport
Date/Time
EST
Temp
°C
App
Temp
°C
Dew
Point
°C
Rel
Hum
%
Delta-T
°C
Wind Press
QNH
hPa
Press
MSL
hPa
Rain since
9am
mm
Dir  Spd
km/h
Gust
km/h
Spd
kts
Gust
kts
17/11:00pm 4.8 0.9 -1.8 62 2.6 SSW 9 17 5 9 1011.6 1012.7 0.0
17/10:30pm 4.9 0.2 -1.8 62 2.6 NNW 13 26 7 14 1012.1 1013.1 0.0
17/10:00pm 4.3 -1.7 -1.9 64 2.4 NW 20 28 11 15 1012.4 1013.4 0.0
17/09:30pm 3.3 -0.2 -2.8 64 2.3 N 6 11 3 6 1012.5 1013.6 0.0
17/09:00pm 3.6 -0.5 -3.0 62 2.4 NW 9 17 5 9 1012.5 1013.6 0.0
17/08:30pm 3.5 -1.0 -3.3 61 2.5 WNW 11 15 6 8 1012.4 1013.4 0.0
17/08:00pm 4.2 -0.6 -2.6 61 2.6 WNW 13 22 7 12 1012.6 1013.7 0.0
17/07:30pm 3.3 -0.9 -3.7 60 2.5 WNW 9 13 5 7 1012.7 1013.8 0.0
17/07:00pm 3.8 -2.2 -3.2 60 2.6 WNW 19 24 10 13 1012.5 1013.6 0.0
17/06:30pm 3.7 -0.5 -3.6 59 2.7 NW 9 15 5 8 1012.7 1013.8 0.0
17/06:00pm 3.8 0.1 -4.2 56 2.9 NNW 6 11 3 6 1012.5 1013.6 0.0
17/05:30pm 5.2 -1.1 -4.1 51 3.4 WNW 20 30 11 16 1012.4 1013.4 0.0
17/05:00pm 6.4 1.0 -4.1 47 3.9 W 15 22 8 12 1012.2 1013.2 0.0
17/04:30pm 6.9 -0.2 -4.2 45 4.1 W 24 35 13 19 1012.1 1013.1 0.0
17/04:00pm 7.6 0.2 -3.6 45 4.3 WNW 26 39 14 21 1012.0 1013.0 0.0
17/03:30pm 8.2 0.5 -2.7 46 4.3 W 28 37 15 20 1012.1 1013.1 0.0
17/03:00pm 8.1 0.7 -3.4 44 4.4 WNW 26 35 14 19 1012.0 1013.0 0.0
17/02:30pm 9.3 3.0 -3.6 40 5.0 WNW 20 35 11 19 1011.7 1012.8 0.0
17/02:00pm 9.8 3.5 -3.8 38 5.3 WNW 20 30 11 16 1011.6 1012.7 0.0
17/01:30pm 9.6 3.3 -4.0 38 5.3 NW 20 30 11 16 1011.5 1012.6 0.0
17/01:00pm 9.9 3.7 -5.2 34 5.7 NNW 19 28 10 15 1012.0 1013.0 0.0
17/12:30pm 9.5 3.9 -6.3 32 5.8 WNW 15 28 8 15 1012.5 1013.6 0.0
17/12:00pm 9.2 4.1 -5.1 36 5.4 WNW 13 20 7 11 1013.3 1014.3 0.0
17/11:30am 8.1 4.3 -6.0 36 5.1 NNE 6 11 3 6 1013.7 1014.8 0.0
17/11:00am 7.2 2.8 -5.8 39 4.7 SE 9 15 5 8 1014.2 1015.4 0.0
17/10:30am 7.0 3.2 -5.3 41 4.5 E 6 13 3 7 1014.5 1015.6 0.0
17/10:00am 6.1 1.1 -4.1 48 3.8 SSW 13 20 7 11 1014.6 1015.7 0.0
17/09:30am 5.5 1.0 -3.6 52 3.4 SW 11 15 6 8 1014.6 1015.7 0.0
17/09:00am 4.7 1.0 -2.8 58 2.8 SW 7 13 4 7 1014.7 1015.8 0.0
17/08:30am 1.9 -0.3 -1.7 77 1.3 CALM 0 0 0 0 1014.9 1016.0 0.0
17/08:00am -1.6 -3.9 -2.4 94 0.2 CALM 0 0 0 0 1014.8 1015.9 0.0
17/07:30am -5.6 -8.3 -6.3 95 0.0 CALM 0 0 0 0 1014.4 1015.5 0.0
17/07:00am -7.6 -10.5 -8.5 93 0.0 CALM 0 0 0 0 1014.2 1015.4 0.0
17/06:30am -7.2 -11.4 -8.0 94 0.0 N 7 9 4 5 1013.9 1015.0 0.0
17/06:00am -7.6 -10.6 -8.7 92 0.0 CALM 0 0 0 0 1013.8 1014.9 0.0
17/05:30am -7.0 -9.9 -7.8 94 0.0 CALM 0 0 0 0 1013.4 1014.5 0.0
17/05:00am -7.5 -11.2 -8.9 90 0.1 N 4 7 2 4 1013.5 1014.6 0.0
17/04:30am -7.5 -11.6 -8.7 91 0.1 NNE 6 7 3 4 1013.2 1014.2 0.0
17/04:00am -7.6 -11.8 -9.5 86 0.3 NNE 6 7 3 4 1013.2 1014.2 0.0
17/03:30am -6.8 -11.1 -8.4 88 0.2 N 7 9 4 5 1012.9 1014.0 0.0
17/03:00am -6.4 -9.3 -8.2 87 0.3 CALM 0 0 0 0 1013.3 1014.3 0.0
17/02:30am -5.7 -8.6 -7.7 86 0.4 CALM 0 0 0 0 1013.5 1014.6 0.0
17/02:00am -4.8 -8.9 -7.1 84 0.5 NNE 7 9 4 5 1013.6 1014.7 0.0
17/01:30am -4.3 -7.5 -7.7 77 0.8 N 2 6 1 3 1013.8 1014.9 0.0
17/01:00am -1.8 -5.5 -4.8 80 0.9 NNE 6 9 3 5 1013.6 1014.7 0.0
17/12:30am -2.3 -6.4 -6.8 71 1.3 NE 7 9 4 5 1013.8 1014.9 0.0
17/12:00am 0.3 -3.0 -4.7 69 1.7 WSW 4 9 2 5 1013.8 1014.9 0.0
 
Date/Time
EST
Temp
°C
App
Temp
°C
Dew
Point
°C
Rel
Hum
%
Delta-T
°C
Wind Press
QNH
hPa
Press
MSL
hPa
Rain since
9am
mm
Dir  Spd
km/h
Gust
km/h
Spd
kts
Gust
kts
16/11:30pm -1.1 -4.9 -5.9 70 1.5 ENE 6 9 3 5 1013.8 1014.9 0.0
16/11:00pm 1.8 -3.2 -4.1 65 2.2 WNW 13 19 7 10 1013.7 1014.8 0.0
16/10:30pm 2.0 -3.4 -4.1 64 2.3 WNW 15 22 8 12 1013.7 1014.8 0.0
16/10:00pm 2.1 -3.2 -3.6 66 2.0 WNW 15 19 8 10 1013.7 1014.8 0.0
16/09:30pm 2.5 -3.2 -3.6 64 2.2 WNW 17 20 9 11 1013.6 1014.7 0.0
16/09:00pm 2.5 -2.8 -3.8 63 2.3 WNW 15 17 8 9 1013.5 1014.6 0.0
16/08:30pm 2.7 -3.4 -4.1 61 2.4 WNW 19 24 10 13 1013.3 1014.3 0.0
16/08:00pm 3.0 -3.1 -3.8 61 2.4 WNW 19 24 10 13 1013.2 1014.2 0.0
16/07:30pm 3.2 -2.5 -3.6 61 2.5 WNW 17 22 9 12 1012.8 1013.9 0.0
16/07:00pm 3.6 -2.1 -3.4 60 2.6 WNW 17 22 9 12 1012.6 1013.7 0.0
16/06:30pm 3.9 -1.4 -3.6 58 2.7 WNW 15 20 8 11 1012.4 1013.4 0.0
16/06:00pm 4.3 -1.4 -3.4 57 2.8 WNW 17 24 9 13 1012.2 1013.2 0.0
16/05:30pm 5.3 -0.8 -3.7 52 3.3 WNW 19 28 10 15 1011.6 1012.7 0.0
16/05:00pm 6.6 0.3 -3.6 48 3.9 WNW 20 32 11 17 1011.3 1012.3 0.0
16/04:30pm 7.7 1.1 -3.5 45 4.3 WNW 22 33 12 18 1011.2 1012.2 0.0
16/04:00pm 8.6 2.4 -3.3 43 4.6 WNW 20 28 11 15 1011.0 1012.0 0.0
16/03:30pm 9.2 2.1 -4.0 39 5.1 W 24 32 13 17 1010.9 1011.9 0.0
16/03:00pm 9.9 2.7 -5.2 34 5.7 W 24 35 13 19 1010.5 1011.5 0.0
16/02:30pm 10.1 2.9 -5.4 33 5.8 WSW 24 35 13 19 1010.3 1011.3 0.0
16/02:00pm 10.2 2.5 -6.1 31 6.1 W 26 35 14 19 1010.3 1011.3 0.0
16/01:30pm 10.3 2.3 -6.1 31 6.1 W 28 37 15 20 1010.1 1011.1 0.0
16/01:00pm 10.6 3.9 -7.6 27 6.6 W 20 33 11 18 1010.2 1011.2 0.0
16/12:30pm 10.6 3.5 -8.1 26 6.6 WSW 22 37 12 20 1010.3 1011.3 0.0
16/12:00pm 10.1 2.2 -8.5 26 6.5 W 26 37 14 20 1010.6 1011.7 0.0
16/11:30am 9.8 2.9 -6.5 31 6.0 W 22 32 12 17 1011.1 1012.1 0.0
16/11:00am 9.4 2.1 -6.4 32 5.8 WSW 24 37 13 20 1011.1 1012.1 0.0
16/10:30am 9.1 1.8 -6.3 33 5.6 W 24 37 13 20 1011.1 1012.1 0.0
16/10:00am 8.5 1.0 -4.6 39 4.9 W 26 37 14 20 1010.9 1011.9 0.0
16/09:30am 7.9 1.5 -4.5 41 4.6 WSW 20 32 11 17 1010.9 1011.9 0.0
16/09:00am 7.3 0.7 -3.2 47 4.0 W 22 28 12 15 1010.4 1011.4 0.0
16/08:30am 6.1 1.2 -3.3 51 3.6 SW 13 20 7 11 1010.2 1011.2 0.0
16/08:00am 5.3 1.3 -2.5 57 3.0 W 9 13 5 7 1010.0 1011.0 0.0
16/07:30am 3.8 0.1 -2.8 62 2.5 W 7 13 4 7 1009.3 1010.3 0.0
16/07:00am 2.3 -3.3 -2.6 70 1.8 W 17 22 9 12 1008.9 1009.9 0.0
16/06:30am 2.0 -1.7 -3.1 69 1.8 E 7 13 4 7 1008.7 1009.6 0.0
16/06:20am 3.8 -1.6 -1.2 70 1.9 E 17 28 9 15 1008.7 1009.6 0.0
16/06:00am -1.6 -5.6 -5.6 74 1.2 NNW 7 15 4 8 1008.4 1009.4 0.0
16/05:30am 1.8 -2.2 -2.3 74 1.5 W 9 13 5 7 1008.3 1009.3 0.0
16/05:00am 2.7 -1.2 -1.3 75 1.5 WNW 9 13 5 7 1008.1 1009.1 0.0
16/04:30am 2.1 -1.3 -1.9 75 1.5 NNE 6 7 3 4 1008.0 1009.0 0.0
16/04:00am 3.8 -0.4 -0.8 72 1.8 SW 11 28 6 15 1007.8 1008.7 0.0
16/03:30am 4.1 0.6 -1.5 67 2.2 W 7 11 4 6 1007.7 1008.6 0.0
16/03:00am 4.7 0.9 -0.9 67 2.2 WSW 9 20 5 11 1007.8 1008.7 0.0
16/02:30am 3.8 -0.2 -2.4 64 2.3 S 9 15 5 8 1007.9 1008.9 0.0
16/02:00am 6.2 -0.1 -0.7 61 2.8 W 22 37 12 20 1007.9 1008.9 0.0
16/01:30am 6.5 -1.3 -0.5 61 2.8 WNW 30 41 16 22 1008.0 1009.0 0.0
16/01:00am 6.1 0.0 0.6 68 2.3 W 22 37 12 20 1008.0 1009.0 0.0
16/12:30am 6.2 -0.2 1.1 70 2.1 W 24 44 13 24 1008.4 1009.4 0.0
16/12:00am 5.3 -0.2 0.7 72 1.9 WNW 19 32 10 17 1008.6 1009.5 0.0
 
Date/Time
EST
Temp
°C
App
Temp
°C
Dew
Point
°C
Rel
Hum
%
Delta-T
°C
Wind Press
QNH
hPa
Press
MSL
hPa
Rain since
9am
mm
Dir  Spd
km/h
Gust
km/h
Spd
kts
Gust
kts
15/11:30pm 5.7 -1.0 1.4 74 1.8 W 26 35 14 19 1008.4 1009.4 0.0
15/11:06pm 6.2 -1.3 1.5 72 2.0 W 30 56 16 30 1008.3 1009.3 0.0
15/11:00pm 6.1 -0.5 1.8 74 1.8 W 26 44 14 24 1008.3 1009.3 0.0
15/10:30pm 6.8 -0.2 2.1 72 2.0 W 28 43 15 23 1008.2 1009.2 0.0
15/10:17pm 7.8 0.5 2.7 70 2.3 W 30 54 16 29 1008.1 1009.1 0.0
15/10:00pm 7.9 1.7 2.2 67 2.5 WNW 24 41 13 22 1007.6 1008.5 0.0
15/09:30pm 7.4 1.1 1.7 67 2.5 WNW 24 35 13 19 1007.2 1008.2 0.0
15/09:00pm 8.2 -0.9 1.6 63 2.9 NW 39 67 21 36 1007.6 1008.5 0.0
15/08:52pm 8.4 -0.4 1.3 61 3.1 WNW 37 67 20 36 1007.5 1008.4 0.0
15/08:32pm 7.9 0.8 1.3 63 2.8 WNW 28 48 15 26 1007.8 1008.7 0.0
15/08:30pm 8.0 0.9 1.2 62 2.9 WNW 28 43 15 23 1007.7 1008.6 0.0
15/08:07pm 8.7 1.5 0.9 58 3.4 WNW 28 46 15 25 1007.5 1008.4 0.0
15/08:00pm 9.0 1.5 1.0 57 3.5 WNW 30 46 16 25 1007.5 1008.4 0.0
15/07:35pm 9.3 2.1 1.0 56 3.6 NW 28 52 15 28 1006.9 1007.9 0.0
15/07:30pm 8.9 2.5 0.9 57 3.4 NW 24 37 13 20 1007.0 1008.0 0.0
15/07:00pm 9.1 2.3 0.6 55 3.7 NW 26 43 14 23 1007.1 1008.1 0.0
15/06:30pm 8.8 2.8 0.8 57 3.4 NW 22 41 12 22 1007.4 1008.3 0.0
15/06:00pm 8.4 3.4 1.6 62 3.0 NNW 17 32 9 17 1007.5 1008.4 0.0
15/05:30pm 7.7 2.4 2.0 67 2.5 NNW 19 28 10 15 1007.5 1008.4 0.0
15/05:00pm 8.1 1.9 2.4 67 2.5 NW 24 39 13 21 1007.7 1008.6 0.0
15/04:30pm 8.1 1.9 2.4 67 2.5 NW 24 43 13 23 1007.8 1008.7 0.0
15/04:00pm 8.4 1.9 2.4 66 2.7 NW 26 43 14 23 1007.9 1008.9 0.0
15/03:30pm 8.7 1.3 1.6 61 3.1 NW 30 57 16 31 1008.1 1009.1 0.0
15/03:27pm 8.9 1.8 1.3 59 3.3 NW 28 57 15 31 1008.1 1009.1 0.0
15/03:00pm 9.8 2.0 1.7 57 3.6 WNW 32 44 17 24 1008.6 1009.5 0.0
15/02:30pm 9.9 1.9 1.5 56 3.7 WNW 33 56 18 30 1008.3 1009.3 0.0
15/02:00pm 9.7 -0.2 1.4 56 3.7 WNW 43 63 23 34 1007.8 1008.7 0.0
15/01:30pm 10.9 0.0 1.2 51 4.3 WNW 48 69 26 37 1007.7 1008.6 0.0
15/01:00pm 11.6 0.6 0.7 47 4.8 WNW 48 69 26 37 1008.0 1009.0 0.0
15/12:30pm 13.0 2.2 -0.6 39 5.9 WNW 46 70 25 38 1007.6 1008.5 0.0
15/12:00pm 12.8 0.4 -1.1 38 6.0 WNW 54 78 29 42 1007.8 1008.7 0.0
15/11:30am 13.2 0.7 -1.9 35 6.4 WNW 54 85 29 46 1007.7 1008.6 0.0
15/11:00am 13.0 1.2 -2.1 35 6.3 WNW 50 82 27 44 1008.0 1009.0 0.0
15/10:30am 12.9 2.4 -2.2 35 6.3 WNW 43 76 23 41 1008.2 1009.2 0.0
15/10:00am 12.3 2.2 -2.7 35 6.2 WNW 41 72 22 39 1008.3 1009.3 0.0
15/09:30am 11.7 2.7 -2.9 36 5.9 WNW 35 63 19 34 1009.3 1010.3 0.0
15/09:00am 10.5 0.5 -1.9 42 5.1 WNW 41 67 22 36 1009.1 1010.1 0.0
15/08:30am 10.1 -0.2 -0.7 47 4.5 WNW 43 67 23 36 1008.7 1009.6 0.0
15/08:00am 9.2 -1.6 -0.7 50 4.1 WNW 46 72 25 39 1008.3 1009.3 0.0
15/07:30am 8.5 -3.1 -1.0 51 3.9 WNW 50 74 27 40 1008.6 1009.5 0.0
15/07:00am 7.9 -4.5 -1.3 52 3.7 WNW 54 78 29 42 1008.3 1009.3 0.0
15/06:30am 7.6 -4.8 -1.1 54 3.5 WNW 54 82 29 44 1008.7 1009.6 0.0
15/06:00am 7.3 -5.4 -0.4 58 3.2 WNW 56 87 30 47 1008.2 1009.2 0.0
15/05:30am 7.1 -4.4 -0.4 59 3.1 NW 50 78 27 42 1008.6 1009.5 0.0
15/05:00am 7.0 -4.5 -0.4 59 3.0 WNW 50 70 27 38 1009.8 1010.8 0.0
15/04:30am 6.9 -3.9 -0.3 60 3.0 WNW 46 69 25 37 1010.4 1011.4 0.0
15/04:00am 6.9 -4.3 -0.5 59 3.0 WNW 48 74 26 40 1010.9 1011.9 0.0
15/03:30am 6.9 -1.5 -0.8 58 3.1 WNW 33 57 18 31 1011.5 1012.6 0.0
15/03:00am 6.9 -1.8 -0.5 59 3.0 WNW 35 54 19 29 1011.2 1012.2 0.0
15/02:30am 6.8 -1.0 -0.6 59 3.0 NW 30 48 16 26 1012.4 1013.4 0.0
15/02:00am 6.8 -0.5 -0.2 61 2.9 NW 28 48 15 26 1013.0 1014.1 0.0
15/01:32am 6.9 -0.4 -0.3 60 3.0 NW 28 48 15 26 1013.0 1014.1 0.0
15/01:30am 6.8 -0.2 -0.2 61 2.9 NW 26 48 14 26 1013.0 1014.1 0.0
15/01:00am 6.9 0.9 -1.5 55 3.4 NNW 20 43 11 23 1013.2 1014.2 0.0
15/12:30am 6.0 2.1 -1.6 58 3.0 NNE 9 22 5 12 1013.6 1014.7 0.0
15/12:00am 6.3 -0.4 -3.9 48 3.8 N 22 39 12 21 1013.7 1014.8 0.0
 
Date/Time
EST
Temp
°C
App
Temp
°C
Dew
Point
°C
Rel
Hum
%
Delta-T
°C
Wind Press
QNH
hPa
Press
MSL
hPa
Rain since
9am
mm
Dir  Spd
km/h
Gust
km/h
Spd
kts
Gust
kts
14/11:30pm 7.0 -0.6 -2.2 52 3.6 NNW 28 41 15 22 1014.0 1015.1 0.0

Other Formats:

Comma delimited format used in spreadsheet applications
http://www.bom.gov.au/fwo/IDN60801/IDN60801.94921.axf

JavaScript Object Notation format (JSON) in row-major order
http://www.bom.gov.au/fwo/IDN60801/IDN60801.94921.json